Regional Weather Roundup
Issued by NWS Glasgow, MT

Home | Current Version | Previous Version | Text Only | Print | Product List | Glossary On
Versions: 1 2 3 4 5 6 7 8 9 10 11 12 13 14 15 16 17 18 19 20 21 22 23 24 25 26 27 28 29 30 31 32 33 34 35 36 37 38 39 40 41 42 43 44 45 46 47 48 49 50
000
ASUS45 KGGW 260215
RWRGGW
HOURLY REGIONAL WEATHER ROUNDUP FOR NORTHEAST MONTANA
NATIONAL WEATHER SERVICE GLASGOW MONTANA
800 PM MDT MON JUL 25 2016

NOTE: "FAIR" INDICATES FEW OR NO CLOUDS BELOW 12,000 FEET WITH NO
SIGNIFICANT WEATHER AND/OR OBSTRUCTIONS TO VISISBILITY.

NORTHEAST MONTANA


CITY           SKY/WX    TMP DP  RH WIND       PRES   REMARKS
GLASGOW        CLEAR     82  56  40 E9        29.95S
PLENTYWOOD       N/A     82  56  40 E5          N/A
WOLF POINT     CLEAR     88  52  29 E7        29.95S
JORDAN           N/A     88  44  21 NE14      29.95S
SIDNEY         CLEAR     83  57  41 NE13      29.96S
GLENDIVE       CLEAR     86  53  32 NE13      29.96R
MALTA            N/A     84  58  40 NE3G17      N/A
SCOBEY           N/A     78  57  48 N5        30.01R

FORT PECK REPORTS


CITY           SKY/WX    TMP DP  RH WIND       PRES   REMARKS
FORT PECK        N/A     87  53  31 NE9         N/A
THE PINES        N/A     81  59  47 NE10        N/A

SOUTHEAST MONTANA


CITY           SKY/WX    TMP DP  RH WIND       PRES   REMARKS
BILLINGS       PTCLDY    89  37  16 NE14      29.96S
MILES CITY     CLEAR     93  44  18 NE16      29.91S
BAKER          CLEAR     86  52  30 NE9       29.97R
LIVINGSTON     CLOUDY    80  47  31 SE10      30.05R

CENTRAL MONTANA


CITY           SKY/WX    TMP DP  RH WIND       PRES   REMARKS
HAVRE          CLEAR     85  52  32 E10       29.97R
LEWISTOWN      CLOUDY    81  50  33 CALM      30.09R
GREAT FALLS    CLEAR     85  44  23 N12       30.04R
CUT BANK         N/A     80  49  33 NE9       30.08S
HELENA         CLOUDY    73  51  46 SW10G18   30.08R
BUTTE          CLOUDY    75  45  34 SE12G20   30.18R
BOZEMAN        PTCLDY    78  48  34 NW12      30.05R

WESTERN MONTANA


CITY           SKY/WX    TMP DP  RH WIND       PRES   REMARKS
MISSOULA       SUNNY     88  46  23 N8        30.00R
KALISPELL      NOT AVBL

NORTH DAKOTA


CITY           SKY/WX    TMP DP  RH WIND       PRES   REMARKS
WILLISTON      CLEAR     85  57  38 NE7       29.98R
DICKINSON      CLEAR     79  58  48 NE10      29.95R
MINOT          CLEAR     81  69  67 N7        29.96R
BISMARCK       CLEAR     82  70  66 E7        29.90S

SOUTHERN SASKATCHEWAN


CITY           SKY/WX    TMP DP  RH WIND       PRES   REMARKS
REGINA         PTCLDY    73  59  60 N7        30.02
ESTEVAN        PTCLDY    75  68  78 E5        29.98
SWIFT CURRENT  CLEAR     72  57  60 NE8       30.06S




USA.gov is the U.S. government's official web portal to all federal, state and local government web resources and services.